Location: ?????? ??????
(44.3742°N, 135.2221°E)
Time: 04:22:24
(UTC+00:00)

Cosmos 1727 Rocket - Pass Details

Date: 19 May 2025
Orbit: 960 x 996 km, 82.9° (Epoch: 19 June)

Event Time Altitude Azimuth Distance (km) Brightness Sun altitude
Exits shadow 15:35:18 49° 233° (SW) 1,240 4.2 -25.1°
Maximum altitude 15:36:41 60° 281° (WNW) 1,106 4.2 -25.0°
Drops below altitude 10° 15:42:51 10° 1° (N) 2,719 7.4 -24.8°
Sets 15:45:24 0° 6° (N) 3,666 8.4 -24.7°
